K0WOI Weather Reports


time (UTC)temp
C
wind
direction
speed
KPH
gust
KPH
rain 1hr
cm
rain 24hr
cm
rain mn
cm
humidity
%
barometer
mb
20260906172135 29 111 0.0 0.0 0.00 0.00 0.00 84 1016.5
20260906171634 29 109 0.0 0.0 0.00 0.00 0.00 83 1016.3
20260906171130 29 108 0.0 0.0 0.00 0.00 0.00 83 1016.3
20260906170627 29 110 0.0 0.0 0.00 0.00 0.00 82 1016.4
20260906170126 28 109 0.0 0.0 0.00 0.00 0.00 83 1016.5
20260906165622 28 108 0.0 0.0 0.00 0.00 0.00 83 1016.6
20260906165117 28 109 0.0 0.0 0.00 0.00 0.00 84 1016.4
20260906164616 28 109 0.0 0.0 0.00 0.00 0.00 84 1016.2
20260906164112 28 108 0.0 0.0 0.00 0.00 0.00 83 1016.6
20260906163607 28 110 0.0 0.0 0.00 0.00 0.00 84 1016.5
20260906163103 28 108 0.0 0.0 0.00 0.00 0.00 85 1016.4
20260906162600 27 115 0.0 0.0 0.00 0.00 0.00 86 1016.3
20260906162055 27 109 0.0 0.0 0.00 0.00 0.00 87 1016.4
20260906161550 27 110 0.0 0.0 0.00 0.00 0.00 87 1016.0
20260906161049 28 109 0.0 0.0 0.00 0.00 0.00 86 1016.2
20260906160548 27 110 0.0 0.0 0.00 0.00 0.00 87 1016.2
20260906160047 27 109 0.0 0.0 0.00 0.00 0.00 87 1016.2
20260906155544 27 108 0.0 0.0 0.00 0.00 0.00 89 1016.5
20260906155040 26 112 0.0 0.0 0.00 0.00 0.00 89 1016.6
20260906154536 26 110 0.0 0.0 0.00 0.00 0.00 91 1016.7
20260906154034 26 111 0.0 0.0 0.00 0.00 0.00 90 1016.7
20260906153533 26 108 0.0 0.0 0.00 0.00 0.00 92 1016.9
20260906153029 26 108 0.0 0.0 0.00 0.00 0.00 92 1017.0
20260906152523 25 108 0.0 0.0 0.00 0.00 0.00 93 1016.9
20260906152022 25 109 0.0 0.0 0.00 0.00 0.00 94 1016.8
20260906151518 25 108 0.0 0.0 0.00 0.00 0.00 94 1016.6
20260906151013 25 108 0.0 0.0 0.00 0.00 0.00 95 1016.6
20260906150509 24 108 0.0 0.0 0.00 0.00 0.00 95 1016.7
20260906150008 24 108 0.0 0.0 0.00 0.00 0.00 96 1016.8
20260906145507 24 108 0.0 0.0 0.00 0.00 0.00 96 1016.9
20260906145003 23 108 0.0 0.0 0.00 0.00 0.00 96 1017.0
20260906144456 23 108 0.0 0.0 0.00 0.00 0.00 97 1016.8
20260906143952 23 109 0.0 0.0 0.00 0.00 0.00 97 1017.1
20260906143447 23 107 0.0 0.0 0.00 0.00 0.00 97 1016.9
20260906142943 23 110 0.0 0.0 0.00 0.00 0.00 97 1017.0
20260906142436 23 108 0.0 0.0 0.00 0.00 0.00 98 1016.9
20260906141932 23 107 0.0 0.0 0.00 0.00 0.00 98 1017.2
20260906141426 23 107 0.0 0.0 0.00 0.00 0.00 99 1017.0
20260906140920 23 107 0.0 0.0 0.00 0.00 0.00 99 1017.0
20260906140414 23 107 0.0 0.0 0.00 0.00 0.00 99 1016.9
20260906135912 23 109 0.0 0.0 0.00 0.00 0.00 99 1017.0
20260906135406 22 107 0.0 0.0 0.00 0.00 0.00 99 1017.0
20260906134902 22 106 0.0 0.0 0.00 0.00 0.00 99 1017.1
20260906134357 22 107 0.0 0.0 0.00 0.00 0.00 99 1017.2
20260906133852 22 108 0.0 0.0 0.00 0.00 0.00 99 1017.2
20260906133348 22 106 0.0 0.0 0.00 0.00 0.00 99 1017.4
20260906132844 22 107 0.0 0.0 0.00 0.00 0.00 99 1017.2
20260906132338 22 107 0.0 0.0 0.00 0.00 0.00 99 1016.9
20260906131834 22 106 0.0 0.0 0.00 0.00 0.00 99 1017.2
20260906131329 22 106 0.0 0.0 0.00 0.00 0.00 99 1016.9
20260906130825 22 106 0.0 0.0 0.00 0.00 0.00 99 1016.9
20260906130325 22 106 0.0 0.0 0.00 0.00 0.00 99 1016.9
20260906125824 22 105 0.0 0.0 0.00 0.00 0.00 99 1016.7
20260906125321 22 105 0.0 0.0 0.00 0.00 0.00 99 1016.9
20260906124816 22 105 0.0 0.0 0.00 0.00 0.00 99 1016.9
20260906124312 22 105 0.0 0.0 0.00 0.00 0.00 99 1016.7
20260906123811 22 105 0.0 0.0 0.00 0.00 0.00 99 1016.6
20260906123306 21 105 0.0 0.0 0.00 0.00 0.00 99 1016.9
20260906122806 21 105 0.0 0.0 0.00 0.00 0.00 99 1016.5
20260906122301 21 105 0.0 0.0 0.00 0.00 0.00 99 1016.5
20260906121758 21 105 0.0 0.0 0.00 0.00 0.00 99 1016.7
20260906121254 21 105 0.0 0.0 0.00 0.00 0.00 99 1016.5
20260906120749 21 106 0.0 0.0 0.00 0.00 0.00 99 1016.5
20260906120246 21 106 0.0 0.0 0.00 0.00 0.00 99 1016.2
20260906115741 21 106 0.0 0.0 0.00 0.00 0.00 99 1016.3
20260906115236 21 106 0.0 0.0 0.00 0.00 0.00 99 1016.0
20260906114735 21 106 0.0 0.0 0.00 0.00 0.00 99 1016.0
20260906114231 21 106 0.0 0.0 0.00 0.00 0.00 99 1016.1
20260906113726 21 106 0.0 0.0 0.00 0.00 0.00 99 1016.1
20260906113224 21 106 0.0 0.0 0.00 0.00 0.00 99 1015.8
20260906112719 21 105 0.0 0.0 0.00 0.00 0.00 99 1016.1
20260906112216 21 105 0.0 0.0 0.00 0.00 0.00 99 1015.8
20260906111715 21 106 0.0 0.0 0.00 0.00 0.00 99 1015.7
20260906111210 21 105 0.0 0.0 0.00 0.00 0.00 99 1015.7
20260906110704 21 105 0.0 0.0 0.00 0.00 0.00 99 1015.8
20260906110200 21 105 0.0 0.0 0.00 0.00 0.00 99 1015.5
20260906105653 21 105 0.0 0.0 0.00 0.00 0.00 99 1015.6
20260906105150 21 105 0.0 0.0 0.00 0.00 0.00 99 1015.7
20260906104649 22 105 0.0 0.0 0.00 0.00 0.00 99 1015.6
20260906104143 22 105 0.0 0.0 0.00 0.00 0.00 99 1015.7
20260906103641 22 105 0.0 0.0 0.00 0.00 0.00 99 1015.8
20260906103137 22 105 0.0 0.0 0.00 0.00 0.00 99 1015.7
20260906102631 22 105 0.0 0.0 0.00 0.00 0.00 99 1015.8
20260906102125 22 105 0.0 0.0 0.00 0.00 0.00 99 1016.2
20260906101620 22 105 0.0 0.0 0.00 0.00 0.00 99 1015.9
20260906101115 22 105 0.0 0.0 0.00 0.00 0.00 99 1016.1
20260906100611 22 105 0.0 0.0 0.00 0.00 0.00 99 1016.0
20260906100111 22 105 0.0 0.0 0.00 0.00 0.00 99 1016.0
20260906095610 22 105 0.0 0.0 0.00 0.00 0.00 99 1015.9
20260906095106 22 105 0.0 0.0 0.00 0.00 0.00 99 1015.9
20260906094605 22 105 0.0 0.0 0.00 0.00 0.00 99 1015.8
20260906094101 22 105 0.0 0.0 0.00 0.00 0.00 99 1015.8
20260906093557 22 105 0.0 0.0 0.00 0.00 0.00 99 1015.5
20260906093051 22 105 0.0 0.0 0.00 0.00 0.00 99 1015.6
20260906092547 22 105 0.0 0.0 0.00 0.00 0.00 99 1015.4
20260906092042 22 105 0.0 0.0 0.00 0.00 0.00 99 1015.6
20260906091537 22 105 0.0 0.0 0.00 0.00 0.00 99 1015.5
20260906091033 22 105 0.0 0.0 0.00 0.00 0.00 99 1015.4
20260906090528 22 105 0.0 0.0 0.00 0.00 0.00 99 1015.4
20260906090023 22 106 0.0 0.0 0.00 0.00 0.00 99 1015.2
20260906085522 22 106 0.0 0.0 0.00 0.00 0.00 99 1015.2
20260906085021 22 106 0.0 0.0 0.00 0.00 0.00 99 1015.3
20260906084516 22 106 0.0 0.0 0.00 0.00 0.00 99 1015.3
20260906084015 22 106 0.0 0.0 0.00 0.00 0.00 99 1015.4
20260906083511 22 106 0.0 0.0 0.00 0.00 0.00 99 1015.2
20260906083010 22 106 0.0 0.0 0.00 0.00 0.00 99 1015.1
20260906082505 23 106 0.0 0.0 0.00 0.00 0.00 99 1015.1
20260906082001 23 106 0.0 0.0 0.00 0.00 0.00 99 1014.9
20260906081456 23 107 0.0 0.0 0.00 0.00 0.00 99 1015.2
20260906080952 23 107 0.0 0.0 0.00 0.00 0.00 99 1015.2
20260906080448 23 107 0.0 0.0 0.00 0.00 0.00 99 1015.1
20260906075943 23 106 0.0 0.0 0.00 0.00 0.00 99 1015.2
20260906075438 23 107 0.0 0.0 0.00 0.00 0.00 99 1015.1
20260906074933 23 106 0.0 0.0 0.00 0.00 0.00 99 1015.0
20260906074433 23 106 0.0 0.0 0.00 0.00 0.00 99 1015.0
20260906073932 23 106 0.0 0.0 0.00 0.00 0.00 99 1015.0
20260906073427 23 107 0.0 0.0 0.00 0.00 0.00 99 1015.2
20260906072923 23 105 0.0 0.0 0.00 0.00 0.00 99 1015.1
20260906072418 23 105 0.0 0.0 0.00 0.00 0.00 99 1015.2
20260906071914 23 105 0.0 0.0 0.00 0.00 0.00 99 1015.2
20260906071409 23 105 0.0 0.0 0.00 0.00 0.00 99 1015.1
20260906070905 23 105 0.0 0.0 0.00 0.00 0.00 99 1015.0
20260906070401 23 105 0.0 0.0 0.00 0.00 0.00 99 1015.0
20260906065857 23 105 0.0 0.0 0.00 0.00 0.00 99 1015.3
20260906065350 23 105 0.0 0.0 0.00 0.00 0.00 99 1015.3
20260906064846 23 105 0.0 0.0 0.00 0.00 0.00 99 1015.3
20260906064343 23 105 0.0 0.0 0.00 0.00 0.00 99 1015.4
20260906063837 23 105 0.0 0.0 0.00 0.00 0.00 99 1015.0
20260906063332 23 105 0.0 0.0 0.00 0.00 0.00 99 1015.2
20260906062827 23 105 0.0 0.0 0.00 0.00 0.00 99 1015.3
20260906062327 23 105 0.0 0.0 0.00 0.00 0.00 99 1015.5
20260906061822 23 105 0.0 0.0 0.00 0.00 0.00 99 1015.1
20260906061319 23 105 0.0 0.0 0.00 0.00 0.00 99 1015.1
20260906060813 23 105 0.0 0.0 0.00 0.00 0.00 99 1015.1
20260906060311 23 105 0.0 0.0 0.00 0.00 0.00 99 1015.2
20260906055807 23 105 0.0 0.0 0.00 0.00 0.00 99 1015.1
20260906055306 23 105 0.0 0.0 0.00 0.00 0.00 99 1015.2
20260906054756 23 105 0.0 0.0 0.00 0.00 0.00 99 1015.4
20260906054252 23 105 0.0 0.0 0.00 0.00 0.00 99 1015.2
20260906053749 23 105 0.0 0.0 0.00 0.00 0.00 99 1015.4
20260906053244 24 105 0.0 0.0 0.00 0.00 0.00 99 1015.3
20260906052739 24 105 0.0 0.0 0.00 0.00 0.00 99 1015.4
20260906052235 24 105 0.0 0.0 0.00 0.00 0.00 99 1014.9
20260906051732 24 105 0.0 0.0 0.00 0.00 0.00 99 1015.3
20260906051231 24 105 0.0 0.0 0.00 0.00 0.00 99 1015.1
20260906050727 24 105 0.0 0.0 0.00 0.00 0.00 99 1015.0
20260906050222 24 105 0.0 0.0 0.00 0.00 0.00 99 1015.2
20260906045721 24 105 0.0 0.0 0.00 0.00 0.00 99 1015.2
20260906045216 24 105 0.0 0.0 0.00 0.00 0.00 99 1015.2
20260906044711 24 105 0.0 0.0 0.00 0.00 0.00 99 1015.1
20260906044206 24 105 0.0 0.0 0.00 0.00 0.00 99 1015.2
20260906043703 24 105 0.0 0.0 0.00 0.00 0.00 99 1015.1
20260906043158 24 105 0.0 0.0 0.00 0.00 0.00 99 1014.9
20260906042657 24 105 0.0 0.0 0.00 0.00 0.00 99 1015.3
20260906042151 24 105 0.0 0.0 0.00 0.00 0.00 99 1015.1
20260906041647 24 105 0.0 0.0 0.00 0.00 0.00 99 1015.2
20260906041142 24 105 0.0 0.0 0.00 0.00 0.00 99 1014.8
20260906040637 24 105 0.0 0.0 0.00 0.00 0.00 99 1014.9
20260906040133 24 105 0.0 0.0 0.00 0.00 0.00 99 1014.9
20260906035628 25 105 0.0 0.0 0.00 0.00 0.00 99 1014.8
20260906035124 24 105 0.0 0.0 0.00 0.00 0.00 99 1014.9
20260906034624 24 105 0.0 0.0 0.00 0.00 0.00 99 1014.5
20260906034118 25 105 0.0 0.0 0.00 0.00 0.00 99 1015.0
20260906033614 25 105 0.0 0.0 0.00 0.00 0.00 99 1014.9
20260906033108 25 105 0.0 0.0 0.00 0.00 0.00 99 1014.9
20260906032606 25 105 0.0 0.0 0.00 0.00 0.00 99 1014.8
20260906032100 25 105 0.0 0.0 0.00 0.00 0.00 99 1014.8
20260906031555 25 105 0.0 0.0 0.00 0.00 0.00 99 1014.9
20260906031051 25 105 0.0 0.0 0.00 0.00 0.00 99 1014.8
20260906030550 25 105 0.0 0.0 0.00 0.00 0.00 99 1014.9
20260906030050 25 105 0.0 0.0 0.00 0.00 0.00 99 1014.8
20260906025550 25 105 0.0 0.0 0.00 0.00 0.00 99 1014.7
20260906025048 25 105 0.0 0.0 0.00 0.00 0.00 99 1014.4
20260906024544 25 105 0.0 0.0 0.00 0.00 0.00 98 1014.2
20260906024043 25 105 0.0 0.0 0.00 0.00 0.00 98 1014.4
20260906023540 25 105 0.0 0.0 0.00 0.00 0.00 98 1014.2
20260906023034 25 105 0.0 0.0 0.00 0.00 0.00 98 1014.3
20260906022530 25 105 0.0 0.0 0.00 0.00 0.00 98 1014.1
20260906022025 25 105 0.0 0.0 0.00 0.00 0.00 98 1014.1
20260906021521 25 105 0.0 0.0 0.00 0.00 0.00 98 1014.2
20260906021014 25 106 0.0 0.0 0.00 0.00 0.00 97 1014.1
20260906020514 26 106 0.0 0.0 0.00 0.00 0.00 97 1013.9
20260906020013 26 105 0.0 0.0 0.00 0.00 0.00 97 1013.8
20260906015512 26 105 0.0 0.0 0.00 0.00 0.00 97 1013.5
20260906015007 26 106 0.0 0.0 0.00 0.00 0.00 96 1013.6
20260906014502 26 105 0.0 0.0 0.00 0.00 0.00 96 1013.6
20260906013957 26 105 0.0 0.0 0.00 0.00 0.00 96 1013.6
20260906013453 26 105 0.0 0.0 0.00 0.00 0.00 96 1013.5
20260906012948 26 106 0.0 0.0 0.00 0.00 0.00 95 1013.5
20260906012443 26 106 0.0 0.0 0.00 0.00 0.00 95 1013.3
20260906011942 26 106 0.0 0.0 0.00 0.00 0.00 95 1013.5
20260906011438 26 105 0.0 0.0 0.00 0.00 0.00 94 1013.6
20260906010933 27 106 0.0 0.0 0.00 0.00 0.00 94 1013.5
20260906010428 27 105 0.0 0.0 0.00 0.00 0.00 94 1013.4
20260906005924 27 105 0.0 0.0 0.00 0.00 0.00 93 1013.4
20260906005424 27 106 0.0 0.0 0.00 0.00 0.00 93 1013.2
20260906004922 27 106 0.0 0.0 0.00 0.00 0.00 92 1013.3
20260906004417 27 106 0.0 0.0 0.00 0.00 0.00 92 1013.2
20260906003913 27 106 0.0 0.0 0.00 0.00 0.00 92 1013.3
20260906003408 28 106 0.0 0.0 0.00 0.00 0.00 91 1013.2
20260906002903 28 106 0.0 0.0 0.00 0.00 0.00 91 1013.5
20260906002403 28 106 0.0 0.0 0.00 0.00 0.00 90 1013.3
20260906001858 28 105 0.0 0.0 0.00 0.00 0.00 89 1013.3
20260906001353 28 105 0.0 0.0 0.00 0.00 0.00 89 1013.0
20260906000848 29 106 0.0 0.0 0.00 0.00 0.00 88 1013.2
20260906000348 29 106 0.0 0.0 0.00 0.00 0.00 87 1013.2
20260905235843 29 106 0.0 0.0 0.00 0.00 0.00 86 1013.0
20260905235337 29 106 0.0 0.0 0.00 0.00 0.00 86 1013.3
20260905234833 30 106 0.0 0.0 0.00 0.00 0.00 85 1013.2
20260905234328 30 106 0.0 0.0 0.00 0.00 0.00 84 1013.1
20260905233823 30 106 0.0 0.0 0.00 0.00 0.00 84 1013.3
20260905233318 30 107 0.0 0.0 0.00 0.00 0.00 83 1013.2
20260905232817 30 106 0.0 0.0 0.00 0.00 0.00 83 1013.3
20260905232313 30 107 0.0 0.0 0.00 0.00 0.00 82 1013.2
20260905231809 31 108 0.0 0.0 0.00 0.00 0.00 82 1013.3
20260905231304 31 108 0.0 0.0 0.00 0.00 0.00 80 1012.9
20260905230800 31 109 0.0 0.0 0.00 0.00 0.00 78 1013.0
20260905230258 31 108 0.0 0.0 0.00 0.00 0.00 79 1013.0
20260905225757 32 108 0.0 0.0 0.00 0.00 0.00 77 1012.9
20260905225253 32 108 0.0 0.0 0.00 0.00 0.00 76 1013.0
20260905224752 32 109 0.0 0.0 0.00 0.00 0.00 76 1012.7
20260905224248 32 107 0.0 0.0 0.00 0.00 0.00 77 1012.9
20260905223743 32 112 0.0 0.0 0.00 0.00 0.00 75 1012.8
20260905223240 32 109 0.0 0.0 0.00 0.00 0.00 78 1012.8
20260905222736 32 108 0.0 0.0 0.00 0.00 0.00 77 1012.9
20260905222234 32 109 0.0 0.0 0.00 0.00 0.00 76 1012.8
20260905221731 32 110 0.0 0.0 0.00 0.00 0.00 74 1012.8
20260905221227 32 108 0.0 0.0 0.00 0.00 0.00 76 1012.8
20260905220723 32 111 0.0 0.0 0.00 0.00 0.00 76 1012.9
20260905220219 32 109 0.0 0.0 0.00 0.00 0.00 76 1013.0
20260905215718 32 110 0.0 0.0 0.00 0.00 0.00 75 1012.8
20260905215214 32 110 0.0 0.0 0.00 0.00 0.00 75 1012.9
20260905214710 33 110 0.0 0.0 0.00 0.00 0.00 75 1012.9
20260905214205 32 109 0.0 0.0 0.00 0.00 0.00 78 1013.0
20260905213700 33 110 0.0 0.0 0.00 0.00 0.00 74 1012.9
20260905213156 33 114 0.0 0.0 0.00 0.00 0.00 73 1012.8
20260905212651 33 111 0.0 0.0 0.00 0.00 0.00 73 1012.9
20260905212150 33 111 0.0 0.0 0.00 0.00 0.00 73 1013.1
20260905211645 32 115 0.0 0.0 0.00 0.00 0.00 74 1013.0
20260905211140 32 111 0.0 0.0 0.00 0.00 0.00 77 1013.2
20260905210637 32 109 0.0 0.0 0.00 0.00 0.00 79 1013.3
20260905210137 32 109 0.0 0.0 0.00 0.00 0.00 76 1013.2
20260905205636 32 109 0.0 0.0 0.00 0.00 0.00 77 1013.3
20260905205130 32 109 0.0 0.0 0.00 0.00 0.00 75 1013.4
20260905204630 33 108 0.0 0.0 0.00 0.00 0.00 76 1013.4
20260905204125 33 112 0.0 0.0 0.00 0.00 0.00 73 1013.2
20260905203625 32 109 0.0 0.0 0.00 0.00 0.00 75 1013.4
20260905203121 32 111 0.0 0.0 0.00 0.00 0.00 77 1013.4
20260905202616 31 110 0.0 0.0 0.00 0.00 0.00 79 1013.2
20260905202111 31 108 0.0 0.0 0.00 0.00 0.00 82 1013.4
20260905201607 31 109 0.0 0.0 0.00 0.00 0.00 82 1013.3
20260905201106 31 108 0.0 0.0 0.00 0.00 0.00 80 1013.3
20260905200602 31 109 0.0 0.0 0.00 0.00 0.00 81 1013.2
20260905200056 32 111 0.0 0.0 0.00 0.00 0.00 78 1013.4
20260905195550 32 109 0.0 0.0 0.00 0.00 0.00 78 1013.4
20260905195046 32 111 0.0 0.0 0.00 0.00 0.00 77 1013.6
20260905194545 32 112 0.0 0.0 0.00 0.00 0.00 76 1013.7
20260905194044 32 109 0.0 0.0 0.00 0.00 0.00 77 1013.7
20260905193540 32 109 0.0 0.0 0.00 0.00 0.00 74 1014.0
20260905193035 32 110 0.0 0.0 0.00 0.00 0.00 75 1014.2
20260905192530 32 110 0.0 0.0 0.00 0.00 0.00 75 1013.9
20260905192027 32 110 0.0 0.0 0.00 0.00 0.00 77 1014.1
20260905191525 31 111 0.0 0.0 0.00 0.00 0.00 79 1013.9
20260905191024 32 109 0.0 0.0 0.00 0.00 0.00 77 1014.2
20260905190522 31 108 0.0 0.0 0.00 0.00 0.00 82 1014.2
20260905190016 31 106 0.0 0.0 0.00 0.00 0.00 80 1014.3
20260905185516 31 108 0.0 0.0 0.00 0.00 0.00 80 1014.5
20260905185015 31 109 0.0 0.0 0.00 0.00 0.00 80 1015.1
20260905184510 31 111 0.0 0.0 0.00 0.00 0.00 79 1015.0
20260905184009 31 110 0.0 0.0 0.00 0.00 0.00 80 1015.2
20260905183508 31 110 0.0 0.0 0.00 0.00 0.00 79 1015.1
20260905183009 31 108 0.0 0.0 0.00 0.00 0.00 79 1015.2
20260905182503 31 112 0.0 0.0 0.00 0.00 0.00 78 1015.3
20260905181958 31 112 0.0 0.0 0.00 0.00 0.00 78 1015.0
20260905181453 31 110 0.0 0.0 0.00 0.00 0.00 77 1015.3
20260905180951 31 107 0.0 0.0 0.00 0.00 0.00 76 1015.5
20260905180446 31 110 0.0 0.0 0.00 0.00 0.00 77 1015.3
20260905175942 31 108 0.0 0.0 0.00 0.00 0.00 77 1015.2
20260905175441 31 107 0.0 0.0 0.00 0.00 0.00 78 1015.2
20260905174937 31 108 0.0 0.0 0.00 0.00 0.00 79 1015.2
20260905174432 31 108 0.0 0.0 0.00 0.00 0.00 79 1015.4
20260905173927 31 106 0.0 0.0 0.00 0.00 0.00 77 1015.2
20260905173424 30 108 0.0 0.0 0.00 0.00 0.00 79 1015.4
20260905172919 30 110 0.0 0.0 0.00 0.00 0.00 81 1015.5